Home   Weather   47°46'N, 10°29'E   Past weeks
Flag for Germany

Past Weather in 47°46'N, 10°29'E, Germany — Yesterday and Last 2 Weeks

Now
64 °F

Mild.


Feels Like: 64 °F
Forecast: 65 / 49 °F
Wind: 10 mph from North

Location: Altenstadt Airport

Current Time: May 25, 2019 at 2:00:47 pm

Latest Report: May 25, 2019 at 1:20 pm


Visibility: N/A

Pressure: 30.01 "Hg

Humidity: 56%

Dew Point: 48 °F

Location of 47°46'N, 10°29'ELocation

Past Weather in 47°46'N, 10°29'E — Graph

°F

47°46'N, 10°29'E Temperature Yesterday

Maximum temperature yesterday: 68 °F (at 3:20 pm)
Minimum temperature yesterday: 39 °F (at 6:20 am)
Average temperature yesterday: 56 °F

High & Low Weather Summary for the Past Weeks

 TemperatureHumidityPressure
High68 °F (May 24, 3:20 pm)100% (May 12, 12:20 am)30.48 "Hg (May 12, 12:20 am)
Low36 °F (May 12, 9:20 am)37% (May 24, 2:20 pm)29.59 "Hg (May 19, 5:20 pm)
Average48 °F81%29.97 "Hg
* Reported May 10 12:20 pm — May 25 12:20 pm, 47°46'N, 10°29'E. Weather by CustomWeather, © 2019

Note: Actual official high and low records may vary slightly from our data, if they occured in-between our weather recording intervals... More about our weather records

Advertising

47°46'N, 10°29'E Weather History for the Previous 24 Hours

Scroll right to see more
 ConditionsComfort  
Time TempWeatherWind HumidityBarometerVisibility
12:20 pm
Sat, May 25
66 °FMild.3 mph49%30.01 "HgN/A
11:20 am63 °FMild.8 mph56%30.01 "HgN/A
10:20 am63 °FMild.3 mph59%30.01 "HgN/A
9:20 am59 °FCool.2 mph68%30.01 "HgN/A
8:20 am55 °FCool.1 mph77%29.98 "HgN/A
7:20 am48 °FCool.3 mph87%29.98 "HgN/A
6:20 am45 °FQuite cool.2 mph93%29.98 "HgN/A
5:20 am45 °FQuite cool.3 mph93%29.98 "HgN/A
4:20 am45 °FQuite cool.2 mph93%29.98 "HgN/A
3:20 am48 °FCool.5 mph82%29.98 "HgN/A
2:20 am48 °FCool.5 mph87%29.98 "HgN/A
1:20 am48 °FCool.5 mph87%29.98 "HgN/A
12:20 am50 °FCool.3 mph88%29.98 "HgN/A
11:20 pm
Fri, May 24
54 °FCool.No wind77%29.98 "HgN/A
10:20 pm55 °FCool.2 mph72%29.98 "HgN/A
9:20 pm59 °FRefreshingly cool.1 mph59%29.98 "HgN/A
8:20 pm63 °FPartly sunny.3 mph49%29.95 "HgN/A
7:20 pm64 °FPartly sunny.7 mph46%29.95 "HgN/A
6:20 pm68 °FPartly sunny.9 mph43%29.95 "HgN/A
5:20 pm66 °FScattered clouds.8 mph43%29.98 "HgN/A
4:20 pm68 °FScattered clouds.9 mph40%29.98 "HgN/A
3:20 pm68 °FScattered clouds.8 mph40%29.98 "HgN/A
2:20 pm66 °FScattered clouds.7 mph37%29.98 "HgN/A
Weather by CustomWeather, © 2019

See weather overview